Regional Weather Roundup
Issued by NWS Cleveland, OH

Home | Current Version | Previous Version | Text Only | Print | Product List | Glossary Off
Versions: 1 2 3 4 5 6 7 8 9 10 11 12 13 14 15 16 17 18 19 20 21 22 23 24 25 26 27 28 29 30 31 32 33 34 35 36 37 38 39 40 41 42 43 44 45 46 47 48 49 50

000
ASUS41 KCLE 250202
RWRCLE
OHIO REGIONAL WEATHER ROUNDUP
NATIONAL WEATHER SERVICE CLEVELAND, OH
900 PM EST WED DEC 24 2014

NOTE: "FAIR" INDICATES FEW OR NO CLOUDS BELOW 12,000 FEET WITH NO
SIGNIFICANT WEATHER AND/OR OBSTRUCTIONS TO VISIBILITY.

OHZ001>008-015>018-024>027-034-035-043-044-250300-
   NORTHWEST OHIO

CITY           SKY/WX    TMP DP  RH WIND       PRES   REMARKS
DEFIANCE       CLOUDY    38  34  85 W7G18     29.52R
FINDLAY        CLOUDY    39  35  86 W22G35    29.51R
TOLEDO EXPRESS CLOUDY    37  34  89 W26G36    29.47R
TOLEDO EXEC    CLOUDY    39  34  82 W25G32    29.47R
LIMA           CLOUDY    40  35  83 W23G31    29.55R
$$

OHZ009>014-019>023-028>033-038-089-250300-
   NORTHEAST OHIO

CITY           SKY/WX    TMP DP  RH WIND       PRES   REMARKS
CLE-HOPKINS    CLOUDY    43  38  82 SW29G44   29.45R
CLE-LAKEFRONT  LGT RAIN  44  38  79 SW31G43   29.41R
CUY CO. ARPT   MOCLDY    48  43  81 W17G29    29.38R
LORAIN-ELYRIA  LGT RAIN  40  36  86 W26G44    29.43R
ASHTABULA      LGT RAIN  51  46  83 SW15G28   29.32R
AKRON-CANTON   LGT RAIN  45  39  79 W23G44    29.46R
WOOSTER        LGT RAIN  41  36  82 W32G41    29.49R
MANSFIELD      CLOUDY    39  36  89 W22G33    29.51R
YOUNGSTOWN     LGT RAIN  50  45  83 SW29G36   29.39R
$$

OHZ042-051>053-060>062-070>072-077>081-250300-
  SOUTHWEST OHIO

CITY           SKY/WX    TMP DP  RH WIND       PRES   REMARKS
CINC-COVINGTON LGT RAIN  40  34  79 W13G21    29.69R
CINC-LUNKEN    CLOUDY    42  37  82 W15       29.70R
HAMILTON       CLOUDY    42  36  79 W13G20    29.69R
DAYTON         CLOUDY    40  35  83 W25G32    29.64R
WRIGHT-PAT AFB CLOUDY    40  36  85 W17G26    29.63R
DAYTON GENERAL LGT RAIN  41  36  82 W12G21    29.64R
WILMINGTON     LGT RAIN  40  35  83 W23G29    29.63R
$$

OHZ036-037-039>041-045>050-054>059-063>069-073>076-082>088-250300-
  CENTRAL AND SOUTHEAST OHIO

CITY           SKY/WX    TMP DP  RH WIND       PRES   REMARKS
COLUMBUS       CLOUDY    41  36  82 W10G22    29.60R
OSU AIRPORT    CLOUDY    41  35  79 W16G30    29.59R
BOLTON FIELD   NOT AVBL
RICKENBACK AFB CLOUDY    40  37  86 W13G20    29.61R
NEWARK         CLOUDY    42  36  79 W21G29    29.57R
MARION         CLOUDY    40  35  83 W22G30    29.55R
LANCASTER      CLOUDY    42  37  82 W21G32    29.60S
ZANESVILLE     CLOUDY    42  37  82 W18G29    29.57R
NEW PHILLY     LGT RAIN  46  40  79 W20G30    29.50R
$$



USA.gov is the U.S. government's official web portal to all federal, state and local government web resources and services.